Regional Weather Roundup
Issued by NWS

Home | Current Version | Previous Version | Text Only | Print | Product List | Glossary Off
Versions: 1 2 3 4 5 6 7 8 9 10 11 12 13 14 15 16 17 18 19 20 21 22 23 24 25 26 27 28 29 30 31 32 33 34 35 36 37 38 39 40 41 42 43 44 45 46 47 48 49 50

000
ASUS43 KMPX 150410
RWRMN
WEATHER ROUNDUP FOR MINNESOTA
NATIONAL WEATHER SERVICE TWIN CITIES/CHANHASSEN MN
1100 PM CDT SUN SEP 14 2014


NOTE: "FAIR" INDICATES FEW OR NO CLOUDS BELOW 12,000 FEET WITH NO
SIGNIFICANT WEATHER AND/OR OBSTRUCTIONS TO VISIBILITY. N/A MEANS
CURRENT SKY AND/OR WEATHER CONDITIONS ARE NOT AVAILABLE.

MNZ060>063-068>070-150500-
   Twin Cities Metro

CITY           SKY/WX    TMP DP  RH WIND       PRES   REMARKS
TWIN CITIES    CLOUDY    55  44  66 NW6       30.15R
ST PAUL        CLOUDY    53  45  74 NW6       30.16R
CRYSTAL        CLOUDY    53  45  74 CALM      30.14R
BLAINE         CLOUDY    54  46  76 CALM      30.15R
LAKEVILLE      DRIZZLE   50  46  87 CALM      30.15S
EDEN PRAIRIE   CLOUDY    55  46  71 N3        30.14R
SOUTH ST PAUL  CLOUDY    56  44  62 W5        30.15R
LAKE ELMO      FAIR      52  45  76 NW3       30.15R
$$
MNZ001>005-007-008-013>017-022>024-027-028-150500-
   Northwest Minnesota

CITY           SKY/WX    TMP DP  RH WIND       PRES   REMARKS
BEMIDJI        CLOUDY    46  44  91 W6        30.13S
HALLOCK        CLOUDY    46  37  71 CALM      30.15R
ROSEAU         CLOUDY    45  39  81 W3        30.13R
WARROAD        MOCLDY    45  41  87 W5        30.13R
THIEF RVR FALL CLOUDY    48  41  76 NW5       30.15R
CROOKSTON      CLOUDY    48  45  87 CALM      30.16S
FOSSTON        CLOUDY    45  43  93 CALM      30.15R
DETROIT LAKES  MOCLDY    46  45  93 W3        30.16R
MOORHEAD       CLOUDY    52  46  82 CALM      30.16S
PARK RAPIDS    PTCLDY    38  37  97 NW5       30.14R
MAHNOMEN       CLOUDY    46  43  91 CALM      30.15R
$$
MNZ006-009>011-018-025>026-150500-
   North Central Minnesota

CITY           SKY/WX    TMP DP  RH WIND       PRES   REMARKS
BAUDETTE       CLOUDY    48  43  82 NW6       30.11R
FLAG ISLAND    CLEAR     46  43  87 W12       30.09R
INTL FALLS     CLOUDY    46  44  93 W6        30.08R
WASKISH        CLOUDY    48  45  87 CALM      30.12R
BIG FORK       CLOUDY    48  43  81 SW3       30.11R
LONGVILLE      PTCLDY    39  39 100 CALM      30.13R
GRAND RAPIDS   PTCLDY    46  41  81 W5        30.12R
CRANE LAKE     MOCLDY    45  43  93 CALM      30.10R
ORR            CLOUDY    46  43  87 W3        30.07R
COOK           CLOUDY    46  45  93 W5        30.10R
WALKER         CLOUDY    45  42  91 W3        30.13R
$$
MNZ012-019>021-037-150500-
   Northeast Minnesota

CITY           SKY/WX    TMP DP  RH WIND       PRES   REMARKS
DULUTH         PTCLDY    47  41  80 W8        30.10R
ELY            MIX PCPN  45  43  93 CALM      30.08R
HIBBING        PTCLDY    47  42  83 NW6       30.10S
EVELETH        MOCLDY    45  43  93 CALM      30.10S
DULUTH HARBOR  CLEAR     54  46  76 W12       30.11S
TWO HARBORS    PTCLDY    45  39  81 W7        30.07S
SILVER BAY     CLEAR     45  45 100 CALM      30.07R
GRAND MARAIS     N/A     47  44  90 CALM      30.05R
G MARAIS ARPRT CLEAR     43  39  87 W6        30.06R
$$
MNZ029>031-032-039>041-046>048-054>057-064-150500-
   West Central Minnesota

CITY           SKY/WX    TMP DP  RH WIND       PRES   REMARKS
FERGUS FALLS   PTCLDY    48  43  81 N5        30.16S
WHEATON        PTCLDY    45  41  87 NW3       30.19R
MORRIS         MOCLDY    50  43  76 NW10      30.15R
ALEXANDRIA     CLOUDY    49  45  86 W5        30.16R
ELBOW LAKE     FAIR      46  44  95 CALM      30.16R
WADENA         MOCLDY    43  41  93 CALM      30.15R
GLENWOOD       MOCLDY    45  43  93 CALM      30.16R
APPLETON       MOCLDY    48  46  93 CALM      30.16R
BENSON         MOCLDY    46  45  93 CALM      30.16R
ORTONVILLE     CLOUDY    52  43  71 CALM      30.16R
MADISON        CLOUDY    52  48  87 NW5       30.16S
WILLMAR        FAIR      48  45  87 CALM      30.17R
$$
MNZ033>034-036-042>043-049>051-058-059-150500-
   Central Minnesota

CITY           SKY/WX    TMP DP  RH WIND       PRES   REMARKS
ST CLOUD       MOCLDY    50  45  83 CALM      30.15R
SAUK CENTRE    FAIR      45  44  95 S3        30.16R
PAYNESVILLE    MOCLDY    45  44  97 CALM      30.16S
AITKIN         CLEAR     45  39  81 CALM      30.11S
PINE RIVER     CLEAR     41  39  93 CALM      30.17R
BRAINERD       PTCLDY    45  43  93 W3        30.14R
STAPLES        PTCLDY    43  41  93 CALM      30.15R
LONG PRAIRIE     N/A     45  43  93 CALM      30.16R
LITTLE FALLS   MOCLDY    43  41  93 CALM      30.14S
LITCHFIELD       N/A     50  48  93 CALM      30.16S
BUFFALO        CLOUDY    52  45  77 CALM      30.16R
MAPLE LAKE     CLOUDY    47  46  93 CALM      30.16R
$$
MNZ037-044-045-052-053-150500-
   East Central Minnesota

CITY           SKY/WX    TMP DP  RH WIND       PRES   REMARKS
PRINCETON      MOCLDY    50  46  87 CALM      30.15R
MORA           PTCLDY    45  43  93 W3        30.16R
CAMBRIDGE      MOCLDY    52  43  71 CALM      30.13R
RUSH CITY      MOCLDY    45  44  95 CALM      30.14R
MOOSE LAKE     CLEAR     45  41  87 NW5       30.10R
HINCKLEY       FAIR      41  41 100 CALM      30.13R
CLOQUET        CLEAR     45  41  87 NW6       30.11R
MCGREGOR       CLEAR     43  41  93 W3        30.13R
$$
MNZ071>073-080-081-089-090-097-098-150500-
   Southwest Minnesota

CITY           SKY/WX    TMP DP  RH WIND       PRES   REMARKS
MONTEVIDEO     CLOUDY    50  43  76 CALM      30.17R
GRANITE FALLS  CLOUDY    49  47  91 SW5       30.18R
CANBY          CLOUDY    50  45  83 CALM      30.17S
MARSHALL       CLOUDY    48  45  87 CALM      30.15S
REDWOOD FALLS  CLOUDY    50  47  89 NW5       30.15S
OLIVIA         CLOUDY    50  45  81 W3        30.16R
PIPESTONE      CLOUDY    50  45  81 NE3       30.15R
WINDOM         LGT RAIN  50  46  87 N5        30.15F
WORTHINGTON    CLOUDY    50  45  81 NE5       30.15F
JACKSON        CLOUDY    52  45  76 N6        30.15S
TRACY          CLOUDY    50  47  92 CALM      30.15F
SLAYTON        LGT RAIN  49  46  91 CALM      30.16S
$$
MNZ065>067-074>077-082>085-091>093-150500-
   South Central Minnesota

CITY           SKY/WX    TMP DP  RH WIND       PRES   REMARKS
MANKATO        CLOUDY    52  43  71 N3        30.15S
NEW ULM        DRIZZLE   52  48  87 NW6       30.16S
ST JAMES       CLOUDY    54  46  76 NW3       30.17R
FAIRMONT       CLOUDY    52  43  71 N3        30.15R
GLENCOE        CLOUDY    53  46  78 CALM      30.15S
FARIBAULT      CLOUDY    55  43  62 CALM      30.16R
OWATONNA       CLOUDY    54  46  76 NW3       30.16R
WASECA         CLOUDY    50  43  76 CALM      30.17R
ALBERT LEA     CLOUDY    54  46  76 N5        30.14S
$$
MNZ078>079-086>088-094>096-150500-
   Southeast Minnesota

CITY           SKY/WX    TMP DP  RH WIND       PRES   REMARKS
ROCHESTER      CLOUDY    54  45  71 NW7       30.16R
RED WING       LGT RAIN  54  48  82 W3        30.15R
STANTON        DRIZZLE   53  47  80 SW3       30.15R
DODGE CENTER   CLOUDY    54  45  71 NW5       30.15R
WINONA         CLOUDY    55  50  82 NW3       30.14R
AUSTIN         CLOUDY    54  46  76 CALM      30.15R
PRESTON        CLOUDY    54  51  92 CALM      30.15R
$$
ABBREVIATIONS USED IN REMARKS
   TC - TEMPERATURES IN CELSIUS
  WCI - WIND CHILL INDEX
   HX - HEAT INDEX
  VSB - VISIBILITY
$$


USA.gov is the U.S. government's official web portal to all federal, state and local government web resources and services.